SCP
0 0 0 0 0 0 0 0 0 0 0 0 0 0 0 0 0 0 0 0 0 0 0 0 0 -0 -0 0 0 0 0 0
0 0 0 0 0 0 0 0 0 0 0 0 0 0 0 0 0 0 0 0 0 0 0 0 0 0 0 0 0 0 0 0
0 0 0 0 0 0 0 0 0 0 0 0 0 0 0 0 0 0 0 0 0 0 0 0 0 0 0 0 0 0 0 0
0 0 0 0 0 0 0 0 1 0 0 0 0 0 0 0 0 0 0 0 0 0 0 0 0 0 0 0 0 0 0 0
1 0 0 0 0 1 0 0 0 1 0 0 0 0 0 0 1 1 0 0 0 0 0 0 0 0 0 0 0 0 0 0
0 1 1 1 0 0 1 0 0 0 0 0 0 0 1 0 0 0 0 0 1 0 0 0 0 0 0 0 0 0 0 0
1 1 1 1 0 1 1 1 0 0 0 0 0 0 0 0 0 0 0 0 0 0 0 0 0 0 0 0 0 0 0 0
1 1 1 1 1 2 2 1 1 1 0 1 0 -0 0 -0 0 1 0 0 0 1 0 1 0 0 0 0 0 0 0 0
1 1 1 1 2 2 2 1 1 2 1 1 0 0 0 0 1 0 0 0 0 0 0 0 0 0 0 0 0 0 0 0
1 1 1 2 3 2 2 0 1 3 3 2 0 0 0 0 0 0 0 0 0 0 0 0 0 0 0 0 0 0 0 0
1 1 2 2 3 1 1 0 1 1 1 0 0 1 0 1 1 0 0 0 0 0 0 0 0 0 0 0 0 0 0 0
1 1 2 1 0 1 1 1 0 0 0 -0 0 0 0 0 0 1 0 0 1 0 1 0 0 1 0 0 0 0 0 0
1 1 2 0 1 0 0 0 0 0 -0 -0 -0 1 1 0 1 2 2 1 2 0 0 1 1 1 1 0 0 0 0 0
1 1 1 0 0 0 0 0 0 0 -0 1 0 0 1 1 1 1 0 0 0 1 1 1 1 1 0 1 0 0 0 0
0 1 1 1 0 0 1 0 0 0 0 0 0 1 0 1 1 2 1 0 1 1 2 1 1 1 0 0 0 0 0 0
-0 0 0 0 0 0 0 0 0 0 0 0 1 2 1 1 1 1 1 1 0 1 1 0 0 0 0 0 0 0 0 0
0 0 0 0 0 0 0 0 0 0 0 0 1 1 1 1 0 0 0 0 0 0 0 0 0 0 0 0 0 0 0 0
0 0 0 0 0 0 0 0 0 0 0 0 1 1 0 0 0 0 0 0 0 0 0 0 0 0 0 0 0 0 0 0
0 0 0 0 0 0 0 0 0 0 0 0 0 0 0 0 0 0 0 0 0 0 0 0 0 0 0 0 0 0 0 0
0 0 0 0 0 0 0 0 0 0 0 0 0 0 0 0 0 0 0 0 0 0 0 0 0 0 0 0 0 0 0 0
Wind_Speed_500mb
39 35 34 43 35 33 26 36 25 23 25 11 9 12 6 9 10 8 7 13 5 17 20 22 27 27 18 30 22 25 13 26
43 38 33 33 40 41 28 25 27 22 24 10 17 8 6 14 15 10 8 11 8 14 17 17 20 19 20 22 19 22 32 23
42 37 30 39 41 43 36 29 28 31 28 18 22 17 8 16 11 17 17 23 24 20 21 27 23 26 20 24 24 22 27 24
42 42 37 34 41 43 38 35 37 28 28 22 17 16 15 22 20 23 28 21 20 29 30 26 28 28 31 30 29 38 28 22
42 42 39 39 41 41 40 35 39 45 35 34 25 13 18 18 27 29 33 27 29 33 38 27 27 41 41 40 37 34 33 33
40 41 41 42 37 40 43 37 36 36 31 24 14 20 22 22 20 24 18 31 34 26 30 27 34 39 38 38 36 39 40 36
36 40 44 41 40 41 43 40 34 35 28 25 17 21 28 21 12 28 41 29 15 15 23 33 33 40 43 44 39 43 42 45
48 49 43 44 42 40 37 34 41 32 24 20 28 22 27 28 24 27 17 8 16 18 26 30 39 39 43 46 44 44 48 49
54 48 45 41 42 37 36 38 40 44 42 40 24 26 29 20 14 12 21 25 28 32 23 30 28 31 33 40 48 50 51 50
56 55 52 45 37 38 41 44 44 53 46 36 30 22 23 25 24 31 34 22 20 16 27 38 25 36 46 44 45 49 52 53
54 52 49 44 46 45 47 45 43 38 48 26 23 29 15 29 26 13 26 18 17 28 31 28 36 36 41 43 54 54 58 54
35 48 36 36 33 46 40 46 47 34 37 17 15 8 12 12 23 25 28 29 35 26 36 48 37 40 43 53 49 57 55 53
25 18 18 33 32 33 44 50 30 30 6 10 10 21 22 16 15 25 33 42 38 35 41 34 38 41 47 54 62 59 51 48
13 15 14 19 28 22 22 35 9 7 15 9 24 25 32 25 28 35 44 48 36 30 29 27 40 45 47 57 71 58 51 49
20 11 13 10 20 11 15 13 16 11 19 16 24 26 21 25 34 39 41 41 34 38 38 49 52 58 68 70 61 61 52 50
16 37 53 44 37 32 33 23 14 10 24 24 24 27 35 36 33 35 39 41 46 46 50 56 60 66 66 63 53 52 47 47
23 22 14 31 31 28 22 18 23 29 29 17 21 21 27 39 44 47 47 48 56 55 61 69 67 58 61 55 50 50 52 51
42 35 28 23 16 25 22 20 24 26 14 14 21 27 33 39 47 45 45 48 58 62 59 56 52 53 54 45 47 49 51 48
21 25 22 14 17 14 17 13 22 19 21 23 26 32 33 37 40 47 52 51 52 53 52 51 50 49 53 55 48 49 54 52
23 17 16 19 17 18 21 20 20 25 30 33 36 38 41 47 43 47 60 63 61 58 59 58 60 56 56 44 50 53 58 49
Wind_Direction_500mb
186 192 194 189 185 185 185 191 187 192 197 269 209 248 296 244 258 247 280 312 251 341 334 321 337 334 353 333 339 334 341 283
191 197 199 192 184 187 197 200 199 179 214 193 186 237 188 287 224 259 285 335 286 291 307 278 305 305 296 314 304 290 300 304
196 201 205 192 187 190 192 209 190 204 181 207 204 219 253 219 255 271 263 274 294 288 292 287 289 292 298 297 289 290 293 296
199 200 201 191 192 195 191 204 192 191 201 205 212 239 244 265 260 256 271 269 284 272 287 286 286 289 285 270 275 293 291 296
204 201 201 197 195 192 194 205 216 221 220 218 231 219 269 265 268 285 293 275 296 284 290 285 296 287 268 277 281 286 282 291
209 202 202 202 204 206 202 205 227 235 227 222 211 235 236 239 256 296 261 279 288 291 315 313 293 288 291 285 283 274 278 273
207 207 202 203 208 209 202 200 218 240 236 229 224 239 250 281 278 268 270 268 316 310 293 303 289 287 283 273 274 279 271 269
200 199 205 209 208 207 206 208 206 229 236 242 235 249 258 265 262 285 258 269 299 280 284 296 295 291 296 284 275 273 272 269
196 196 199 205 206 206 212 212 225 216 215 220 238 257 268 268 280 240 258 275 275 275 289 280 298 307 312 311 309 298 290 277
193 190 197 198 200 210 215 224 226 228 215 202 226 237 257 274 280 263 279 270 261 277 280 287 293 290 304 307 305 298 295 292
181 188 197 191 200 198 232 238 245 255 234 196 213 242 270 292 277 262 237 236 283 277 291 277 279 291 315 291 290 288 294 292
206 189 176 183 182 219 234 242 239 265 68 214 253 250 290 239 266 274 277 292 300 286 278 295 259 289 309 307 297 289 286 290
148 150 178 212 222 210 223 238 259 309 119 143 224 264 252 264 303 294 290 295 295 279 299 276 261 284 298 300 301 295 282 283
94 170 206 243 228 279 219 245 268 141 124 214 278 278 274 271 285 290 286 292 301 296 316 288 293 283 297 297 300 293 285 283
10 146 211 270 268 186 195 195 157 210 188 245 282 276 278 286 297 299 293 296 302 302 289 295 300 296 298 294 291 293 284 285
9 44 97 98 107 106 107 127 164 267 248 313 269 296 304 302 299 297 303 301 297 295 298 294 295 297 296 291 285 289 290 283
133 104 123 100 88 90 86 11 337 330 325 324 323 320 318 305 295 302 309 311 304 302 293 294 294 293 293 290 287 294 297 289
87 91 101 83 60 10 9 358 15 351 336 322 318 317 313 321 320 316 311 305 306 308 309 306 302 297 299 296 291 291 288 284
90 90 83 50 32 0 12 25 358 357 337 331 334 332 321 308 313 315 315 312 311 310 307 304 300 298 292 294 293 294 293 290
51 56 13 360 26 26 359 10 357 344 337 337 334 322 318 320 319 321 319 312 307 303 298 298 297 294 294 291 299 292 295 292
Wind_Speed_850mb
39 35 34 43 35 33 26 36 25 23 25 11 9 12 6 9 10 8 7 13 5 17 20 22 27 27 18 30 22 25 13 26
43 38 33 33 40 41 28 25 27 22 24 10 17 8 6 14 15 10 8 11 8 14 17 17 20 19 20 22 19 22 32 23
42 37 30 39 41 43 36 29 28 31 28 18 22 17 8 16 11 17 17 23 24 20 21 27 23 26 20 24 24 22 27 24
42 42 37 34 41 43 38 35 37 28 28 22 17 16 15 22 20 23 28 21 20 29 30 26 28 28 31 30 29 38 28 22
42 42 39 39 41 41 40 35 39 45 35 34 25 13 18 18 27 29 33 27 29 33 38 27 27 41 41 40 37 34 33 33
40 41 41 42 37 40 43 37 36 36 31 24 14 20 22 22 20 24 18 31 34 26 30 27 34 39 38 38 36 39 40 36
36 40 44 41 40 41 43 40 34 35 28 25 17 21 28 21 12 28 41 29 15 15 23 33 33 40 43 44 39 43 42 45
48 49 43 44 42 40 37 34 41 32 24 20 28 22 27 28 24 27 17 8 16 18 26 30 39 39 43 46 44 44 48 49
54 48 45 41 42 37 36 38 40 44 42 40 24 26 29 20 14 12 21 25 28 32 23 30 28 31 33 40 48 50 51 50
56 55 52 45 37 38 41 44 44 53 46 36 30 22 23 25 24 31 34 22 20 16 27 38 25 36 46 44 45 49 52 53
54 52 49 44 46 45 47 45 43 38 48 26 23 29 15 29 26 13 26 18 17 28 31 28 36 36 41 43 54 54 58 54
35 48 36 36 33 46 40 46 47 34 37 17 15 8 12 12 23 25 28 29 35 26 36 48 37 40 43 53 49 57 55 53
25 18 18 33 32 33 44 50 30 30 6 10 10 21 22 16 15 25 33 42 38 35 41 34 38 41 47 54 62 59 51 48
13 15 14 19 28 22 22 35 9 7 15 9 24 25 32 25 28 35 44 48 36 30 29 27 40 45 47 57 71 58 51 49
20 11 13 10 20 11 15 13 16 11 19 16 24 26 21 25 34 39 41 41 34 38 38 49 52 58 68 70 61 61 52 50
16 37 53 44 37 32 33 23 14 10 24 24 24 27 35 36 33 35 39 41 46 46 50 56 60 66 66 63 53 52 47 47
23 22 14 31 31 28 22 18 23 29 29 17 21 21 27 39 44 47 47 48 56 55 61 69 67 58 61 55 50 50 52 51
42 35 28 23 16 25 22 20 24 26 14 14 21 27 33 39 47 45 45 48 58 62 59 56 52 53 54 45 47 49 51 48
21 25 22 14 17 14 17 13 22 19 21 23 26 32 33 37 40 47 52 51 52 53 52 51 50 49 53 55 48 49 54 52
23 17 16 19 17 18 21 20 20 25 30 33 36 38 41 47 43 47 60 63 61 58 59 58 60 56 56 44 50 53 58 49
Wind_Direction_850mb
186 192 194 189 185 185 185 191 187 192 197 269 209 248 296 244 258 247 280 312 251 341 334 321 337 334 353 333 339 334 341 283
191 197 199 192 184 187 197 200 199 179 214 193 186 237 188 287 224 259 285 335 286 291 307 278 305 305 296 314 304 290 300 304
196 201 205 192 187 190 192 209 190 204 181 207 204 219 253 219 255 271 263 274 294 288 292 287 289 292 298 297 289 290 293 296
199 200 201 191 192 195 191 204 192 191 201 205 212 239 244 265 260 256 271 269 284 272 287 286 286 289 285 270 275 293 291 296
204 201 201 197 195 192 194 205 216 221 220 218 231 219 269 265 268 285 293 275 296 284 290 285 296 287 268 277 281 286 282 291
209 202 202 202 204 206 202 205 227 235 227 222 211 235 236 239 256 296 261 279 288 291 315 313 293 288 291 285 283 274 278 273
207 207 202 203 208 209 202 200 218 240 236 229 224 239 250 281 278 268 270 268 316 310 293 303 289 287 283 273 274 279 271 269
200 199 205 209 208 207 206 208 206 229 236 242 235 249 258 265 262 285 258 269 299 280 284 296 295 291 296 284 275 273 272 269
196 196 199 205 206 206 212 212 225 216 215 220 238 257 268 268 280 240 258 275 275 275 289 280 298 307 312 311 309 298 290 277
193 190 197 198 200 210 215 224 226 228 215 202 226 237 257 274 280 263 279 270 261 277 280 287 293 290 304 307 305 298 295 292
181 188 197 191 200 198 232 238 245 255 234 196 213 242 270 292 277 262 237 236 283 277 291 277 279 291 315 291 290 288 294 292
206 189 176 183 182 219 234 242 239 265 68 214 253 250 290 239 266 274 277 292 300 286 278 295 259 289 309 307 297 289 286 290
148 150 178 212 222 210 223 238 259 309 119 143 224 264 252 264 303 294 290 295 295 279 299 276 261 284 298 300 301 295 282 283
94 170 206 243 228 279 219 245 268 141 124 214 278 278 274 271 285 290 286 292 301 296 316 288 293 283 297 297 300 293 285 283
10 146 211 270 268 186 195 195 157 210 188 245 282 276 278 286 297 299 293 296 302 302 289 295 300 296 298 294 291 293 284 285
9 44 97 98 107 106 107 127 164 267 248 313 269 296 304 302 299 297 303 301 297 295 298 294 295 297 296 291 285 289 290 283
133 104 123 100 88 90 86 11 337 330 325 324 323 320 318 305 295 302 309 311 304 302 293 294 294 293 293 290 287 294 297 289
87 91 101 83 60 10 9 358 15 351 336 322 318 317 313 321 320 316 311 305 306 308 309 306 302 297 299 296 291 291 288 284
90 90 83 50 32 0 12 25 358 357 337 331 334 332 321 308 313 315 315 312 311 310 307 304 300 298 292 294 293 294 293 290
51 56 13 360 26 26 359 10 357 344 337 337 334 322 318 320 319 321 319 312 307 303 298 298 297 294 294 291 299 292 295 292